Página principal
METAR-TAF:

METAR-TAF

Aeroportos :

Hillsdale Municipal Airport

Hillsdale, Michigan, Estados Unidos

latitude: 41-55-17N, longitude: 084-35-09W, altura: 360 m

Observação actual do tempo

O boletim foi feito há 21 horas e 6 minutos, às 00:15 UTC
Vento 5 kt de es-sudeste
Temperatura 20°C
Humidade 83%
Pressão 1013 hPa
Visibilidade: 16.1 km
Encobertoa uma altura de 12000 ft
chuva

METAR: KJYM 210015Z AUTO 11005KT 10SM RA OVC120 20/17 A2991 RMK AO2

Hora: 17:21 (21:21 UTC)


TAF: em falta

Observações e previsões do tempo de mais de 4000 aeroportos (mensagens METAR e TAF).

As estações disponíveis são os pontos amarelos e vermelhos sobre o mapa.

Mova o rato sobre o mapa para ver o nome da estação.

Depois clique no ponto para visualizar as observações e previsões meteorológicas.

Para alterar o mapa : clique nos botões verdes com uma cruz preta para aumentar o zoom; no botão verde com uma pitada de zoom; ou nas setas verdes para mapas adjacentes.


METAR-TAF: